Location: Bryn�w
(50.2319°N, 19.0056°E)
Time: 20:32:17
(UTC+00:00)

Daily predictions for brighter satellites

Satellite Brightness Start Highest point End
(mag) Time Altitude Azimuth Time Altitude Azimuth Time Altitude Azimuth
SL-16 R/B 4.4 15:43:13 10° NW 15:48:10 31° WSW 15:53:05 10° SSW
Cosmos 2058 Rocket 4.3 15:45:49 10° NNE 15:49:18 21° ENE 15:52:47 10° ESE
ADEOS Rocket 3.5 15:45:48 10° N 15:51:56 62° WNW 15:57:29 10° SSW
Cosmos 1300 3.0 15:50:33 10° N 15:54:15 45° ENE 15:57:56 10° SSE
Cosmos 1486 Rocket 4.1 15:49:16 10° SSW 15:54:31 84° WNW 15:59:47 10° NNE
Landsat 5 3.3 15:54:08 10° NNE 15:58:06 66° ESE 16:01:56 10° S
Cosmos 1953 4.1 15:55:38 10° NNW 15:59:18 36° W 16:02:57 10° SSW
Cosmos 1943 3.3 15:53:45 10° NNW 15:59:28 89° WSW 16:05:08 10° SSE
Lacrosse 5 2.1 15:54:30 10° WNW 15:59:29 53° NNE 16:04:26 10° E
Cosmos 1726 Rocket 3.9 16:01:09 10° N 16:05:18 41° ENE 16:09:27 10° SE
COSMOS 2455 3.8 16:00:35 10° SSE 16:05:34 28° ESE 16:10:34 10° NE
Meteor 1-24 Rocket 3.9 16:01:02 10° SSE 16:06:06 46° E 16:11:10 10° NNE
CREW DRAGON DEMO-1 DEB 2.7 16:04:46 10° W 16:07:40 64° N 16:10:24 11° E
ERS-2 3.9 16:07:29 10° ENE 16:09:18 14° E 16:11:12 10° ESE
Cosmos 1833 Rocket 4.4 16:06:59 10° N 16:10:04 15° NNE 16:12:57 10° ENE
Cosmos 1939 Rocket 3.2 16:06:15 10° SE 16:10:11 46° ENE 16:14:06 10° N
Cosmos 2082 Rocket 4.1 16:09:18 10° N 16:11:21 12° NNE 16:13:24 10° NE
NOSS 3-4 (A) 4.0 16:06:55 10° WSW 16:12:44 53° NW 16:19:05 10° NE
NOSS 3-4 (C) 4.0 16:07:03 10° WSW 16:12:53 53° NW 16:19:15 10° NE
IRS-1C Rocket 4.5 16:11:19 10° SE 16:16:10 40° ENE 16:21:03 10° N
Feng Yun 1-1 Rocket 4.3 16:11:56 10° SE 16:17:11 54° ENE 16:22:36 10° N
Cosmos 2279 Rocket 4.0 16:11:20 10° N 16:17:35 67° ENE 16:23:48 10° SSE
Cosmos 1674 4.1 16:14:00 10° SW 16:17:37 39° WNW 16:21:15 10° N
Cosmos 1315 Rocket 2.8 16:15:21 10° NNW 16:19:20 89° W 16:23:20 10° S
CZ-4 R/B 2.3 16:18:59 10° ESE 16:22:27 27° ENE 16:25:54 10° N
Cosmos 1503 Rocket 4.2 16:17:06 10° SSW 16:22:29 84° WNW 16:27:55 10° NNE
Cosmos 2227 4.2 16:17:59 10° SSW 16:23:38 85° ESE 16:29:22 10° NNE
COSMO-SKYMED 1 3.2 16:20:23 10° NNE 16:24:23 35° E 16:28:22 10° SSE
Cosmos 2227 Rocket 4.0 16:22:27 10° W 16:27:03 25° NW 16:31:40 10° NNE
ATLAS 2AS CENTAUR R/B 3.5 16:22:29 10° WSW 16:30:20 61° NW 16:38:00 10° NE
Cosmos 1634 Rocket 4.4 16:25:01 10° NNW 16:31:14 68° W 16:37:26 10° S
Cosmos 1844 Rocket 3.6 16:29:38 10° SSE 16:34:19 27° ESE 16:37:42 16° ENE
CZ-2C R/B 3.2 16:29:54 10° SSE 16:35:06 58° ENE 16:40:37 10° N
Okean-O 3.1 16:32:59 10° SE 16:37:03 37° ENE 16:41:08 10° N
H-2A R/B 4.1 16:33:32 10° SSW 16:37:16 37° W 16:41:11 10° NNW
H-2A R/B 2.5 16:33:31 10° SE 16:38:05 37° ENE 16:42:46 10° N
CZ-4B R/B 1.6 16:35:23 10° NNE 16:38:43 50° E 16:41:57 10° S
CSL-04 DEB 4.4 16:34:56 10° NNE 16:39:10 66° ESE 16:43:15 10° S
Cosmos 2344 4.4 16:31:20 10° NW 16:39:32 49° NNE 16:49:28 13° E
SeaSat 1 4.3 16:36:03 10° NNE 16:40:01 25° NW 16:43:59 10° W
Okean O Rocket 2.5 16:35:42 10° S 16:40:03 53° W 16:44:25 10° NNW
Cosmos 158 Rocket 4.4 16:35:30 10° NNW 16:40:34 42° ENE 16:45:40 10° SE
Cosmos 773 Rocket 4.4 16:36:21 10° NNW 16:41:29 66° WSW 16:46:33 10° S
Cosmos 1680 Rocket 4.2 16:37:11 10° N 16:41:55 32° NE 16:46:09 12° ESE
Cosmos 1626 3.5 16:39:57 10° SW 16:43:27 39° WNW 16:46:58 10° N
CZ-4B R/B 4.3 16:38:46 10° S 16:44:07 50° W 16:49:38 10° NNW
Cosmos 1689 Rocket 4.2 16:48:09 14° SE 16:48:09 14° SE 16:48:47 10° SE
Aureole 2 Rocket 3.1 16:45:29 10° SSE 16:48:02 27° ESE 16:48:02 27° ESE
Meteor 2-10 Rocket 3.5 16:45:27 10° N 16:51:04 79° ENE 16:56:24 10° SSE
Cosmos 1818 4.3 16:46:59 10° S 16:51:48 33° ESE 16:54:11 23° ENE
Cosmos 2297 Rocket 4.4 16:48:20 10° WNW 16:51:57 17° NNW 16:55:34 10° N
Cosmos 1606 Rocket 4.5 16:51:53 10° NNW 16:56:08 51° W 17:00:25 10° S
CZ-2D R/B 3.2 16:52:53 10° SSE 16:56:44 86° WSW 17:00:37 10° NNW
H-2A R/B 3.0 16:52:44 10° N 16:57:04 49° WNW 17:01:18 10° SW
USA 234 3.6 16:52:59 21° ENE 16:57:21 53° N 17:03:41 10° WNW
SAR-Lupe-4 4.2 16:57:08 32° E 16:57:36 33° E 17:00:53 10° SSE
Aureole 1 4.3 16:55:50 10° NNW 16:58:52 47° ENE 16:59:24 41° E
CSL-04 Rocket 4.0 16:53:56 10° SE 16:58:57 41° ENE 17:04:05 10° N
YAOGAN 1 2.6 16:55:07 10° SSE 16:59:20 55° ENE 17:03:34 10° N
Cosmos 1892 Rocket 3.4 16:56:01 10° S 17:00:21 86° ESE 17:04:44 10° N
Cosmos 1092 Rocket 4.4 16:56:11 10° SSE 17:01:45 37° E 17:07:20 10° NNE
ATLAS 5 CENTAUR R/B 2.1 16:58:58 10° WSW 17:03:01 54° NW 17:06:05 20° NNE
Meteor 2-1 Rocket 4.1 16:58:35 10° N 17:04:11 67° ENE 17:09:40 10° SSE
Helios 1A Rocket 3.0 17:01:10 10° SE 17:05:10 50° ENE 17:09:13 10° N
Iridium 4 Rocket 4.1 17:00:18 10° N 17:05:38 38° ENE 17:10:37 10° SE
MOS 1 Rocket 2.9 17:02:19 10° NNE 17:06:39 68° E 17:10:55 10° S
RESURS DK-1 4.1 17:04:45 10° WSW 17:08:22 28° NW 17:11:53 11° NNE
SAR-Lupe-1 4.3 17:08:17 43° E 17:08:32 43° E 17:11:57 10° S
Cosmos 1812 Rocket 4.0 17:07:09 10° N 17:11:17 37° ENE 17:11:36 37° E
SKYMED 2 3.6 17:08:11 10° NNE 17:12:33 82° WNW 17:16:54 10° SSW
Aureole 3 2.7 17:11:32 10° N 17:15:14 74° ENE 17:18:22 10° SSE
SJ-11-01 4.2 17:12:19 10° SSE 17:16:58 69° ENE 17:21:39 10° N
CZ-4C R/B 3.5 17:12:04 10° W 17:17:03 34° NNW 17:21:18 17° NNE
CZ-3B R/B 1.7 17:15:16 10° WNW 17:17:43 89° NNE 17:20:10 28° ESE
SJ 16-02 1.4 17:13:35 10° S 17:17:52 53° ESE 17:18:57 41° ENE
Nadezhda 4 Rocket 3.9 17:12:48 10° S 17:19:02 76° E 17:25:15 10° NNE
Cosmos 2112 Rocket 4.1 17:14:24 10° NNW 17:19:34 51° ENE 17:21:52 30° ESE
Cosmos 1777 Rocket 4.2 17:16:05 10° SSW 17:21:20 71° WNW 17:26:00 14° NNE
Cosmos 2263 Rocket 3.4 17:18:23 10° WSW 17:23:43 40° NW 17:28:56 11° NNE
Cosmos 1455 2.2 17:21:55 10° NNW 17:25:44 80° W 17:29:33 10° S
Cosmos 2058 Rocket 4.0 17:23:13 10° NNW 17:27:35 50° W 17:31:56 10° SSW
COSMOS 2406 3.7 17:26:54 10° NNW 17:32:21 39° NE 17:32:43 39° ENE
X-37B 2.9 17:31:48 10° SSW 17:33:14 17° S 17:33:14 17° S
Meteor 2-13 Rocket 4.4 17:31:26 10° S 17:37:33 85° W 17:43:45 10° N
ARGOS 3.0 17:32:19 10° SSE 17:37:41 81° ENE 17:43:05 10° NNW
Okean 1-7 Rocket 4.2 17:37:30 10° SSW 17:41:58 57° WNW 17:46:31 10° N
Lacrosse 5 2.4 17:37:36 10° WNW 17:42:33 54° SW 17:45:00 28° SSE
NOSS 3-1 (C) 3.9 17:35:33 10° NW 17:42:48 74° NE 17:47:11 31° ESE
CREW DRAGON DEMO-1 DEB 4.4 17:40:01 10° WNW 17:41:52 33° W 17:41:52 33° W
ERS-2 2.7 17:42:03 37° NNW 17:43:11 56° WNW 17:46:45 10° SSW
CZ-2C R/B 3.0 17:45:49 45° SE 17:45:49 45° SE 17:50:24 10° S
PSLV R/B 4.2 17:43:31 29° N 17:45:33 70° WNW 17:49:45 10° SSW
ISS -2.0 17:43:09 10° SW 17:45:01 27° SSW 17:45:01 27° SSW
CSL-04 Debris 4.1 17:42:23 10° SSE 17:47:47 83° WSW 17:53:13 10° NNW
Cosmos 1553 Rocket 4.1 17:44:42 10° N 17:51:00 52° ENE 17:51:29 51° E
COSMOS 2455 3.1 17:45:04 10° SW 17:51:04 68° NW 17:54:03 31° NNE
Cosmos 1626 Rocket 3.6 17:48:45 10° SSW 17:53:08 78° WNW 17:54:01 56° N
Cosmos 1833 Rocket 3.1 17:50:03 10° NNW 17:54:41 44° NNE 17:54:41 44° NNE
Cosmos 1844 3.6 17:50:04 10° SSW 17:55:43 84° ESE 17:57:10 52° NE
USA 281 4.0 17:56:41 31° NNE 17:56:41 31° NNE 18:01:36 10° NNW
Cosmos 2026 Rocket 3.8 17:50:03 10° S 17:56:06 70° E 18:02:17 10° NNE
Cosmos 990 Rocket 4.3 17:52:11 10° S 17:56:17 50° SSE 17:56:17 50° SSE
CZ-4 R/B 3.1 17:53:39 10° SSW 17:57:23 33° W 18:01:06 10° NNW
Cosmos 2082 Rocket 3.4 17:52:17 10° NNW 17:55:56 28° NNE 17:55:56 28° NNE
USA 229 DEB 3.8 17:52:34 10° NW 17:59:47 71° NE 18:01:49 50° ESE
USA 229 3.8 17:52:40 10° NW 17:59:53 71° NE 18:01:52 51° ESE
COSMO-SKYMED 1 4.4 17:56:42 10° N 18:00:29 30° WNW 18:04:15 10° SW
USA 267 3.8 18:04:13 39° SE 18:04:13 39° SE 18:09:48 10° SSW
SL-08 RB Rocket 3.9 18:05:15 64° NW 18:05:15 64° NW 18:09:09 10° NNW
CZ-4B R/B 4.5 18:08:37 10° NNW 18:10:32 14° WNW 18:12:26 10° W
NOSS 3-1 (A) 3.9 18:08:04 10° NW 18:15:20 75° NE 18:16:58 59° ESE
H-2A R/B 3.5 18:12:59 10° SSW 18:17:32 35° W 18:22:13 10° NNW
Cosmos 1844 Rocket 3.1 18:12:16 10° SW 18:17:52 59° NW 18:19:25 44° N
ATLAS 2AS CENTAUR R/B 4.1 18:15:55 10° WNW 18:22:51 32° NNW 18:25:30 26° NNE
Meteor 2-15 4.4 18:16:44 10° NNW 18:22:55 83° W 18:24:42 49° S
Cosmos 1680 Rocket 4.4 18:19:12 10° NW 18:24:12 46° WSW 18:26:36 27° SSW
Cosmos 2098 Rocket 4.3 18:25:52 10° S 18:33:02 83° W 18:40:31 10° N
Cosmos 1818 4.1 18:29:49 10° WSW 18:34:52 55° WNW 18:34:52 55° WNW
USA 234 3.1 18:40:19 84° NNW 18:40:19 84° NNW 18:46:43 10° WNW
ATLAS 5 CENTAUR R/B 3.9 18:45:19 10° WNW 18:47:37 19° NNW 18:47:37 19° NNW
Cosmos 2344 4.4 18:45:43 10° NW 18:54:56 74° SW 18:59:35 43° SSE
SJ 16-02 3.7 18:53:16 10° WSW 18:55:59 21° WNW 18:55:59 21° WNW
CZ-4C R/B 4.1 19:02:25 10° NW 19:06:30 25° N 19:06:30 25° N
Cosmos 2082 Rocket 4.5 19:36:13 10° NW 19:37:48 19° NW 19:37:48 19° NW
